Location: Columbia
(38.9520°N, 92.3340°W)
Time: 14:32:21
(UTC-06:00)

Tiangong 1 - Visible Passes

Search period start: 09 February 2016 00:00
Search period end: 19 February 2016 00:00
Orbit: 383 x 398 km, 42.8° (Epoch: 09 February)

Date Brightness Start Highest point End Pass type
(mag) Time Alt. Az. Time Alt. Az. Time Alt. Az.
09 Feb 2.3 19:05:31 10° W 19:08:33 38° SSW 19:09:49 26° SSE visible
10 Feb 1.5 18:07:51 10° WNW 18:11:04 65° SSW 18:14:16 10° ESE visible
10 Feb 4.1 19:46:18 10° WSW 19:47:31 12° SW 19:47:58 11° SSW visible
11 Feb 3.6 18:47:39 10° W 18:50:08 20° SW 18:52:36 10° SSE visible
13 Feb 4.5 18:30:52 10° SW 18:31:29 10° SW 18:32:06 10° SSW visible
